TimeCST,TemperatureF,Dew PointF,Humidity,Sea Level PressureIn,VisibilityMPH,Wind Direction,Wind SpeedMPH,Gust SpeedMPH,PrecipitationIn,Events,Conditions,WindDirDegrees,DateUTC
12:15 AM,29.1,24.4,83,30.03,10.0,Calm,Calm,-,N/A,,Clear,0,2013-02-24 06:15:00
12:35 AM,28.9,25.5,87,30.05,10.0,Calm,Calm,-,N/A,,Clear,0,2013-02-24 06:35:00
12:55 AM,29.3,26.1,88,30.04,7.0,Calm,Calm,-,N/A,,Clear,0,2013-02-24 06:55:00
1:15 AM,28.2,25.2,88,30.05,7.0,Calm,Calm,-,N/A,,Clear,0,2013-02-24 07:15:00
1:35 AM,27.9,25.3,90,30.05,7.0,NW,3.5,-,N/A,,Clear,310,2013-02-24 07:35:00
1:55 AM,26.1,23.9,92,30.05,7.0,NNW,3.5,-,N/A,,Clear,330,2013-02-24 07:55:00
2:15 AM,27.7,24.6,88,30.06,10.0,NW,3.5,-,N/A,,Clear,310,2013-02-24 08:15:00
2:35 AM,27.5,24.6,89,30.06,7.0,Calm,Calm,-,N/A,,Clear,0,2013-02-24 08:35:00
2:55 AM,27.5,25.2,91,30.07,7.0,Calm,Calm,-,N/A,,Clear,0,2013-02-24 08:55:00
3:15 AM,28.2,24.8,87,30.07,7.0,Calm,Calm,-,N/A,,Clear,0,2013-02-24 09:15:00
3:35 AM,28.4,24.4,85,30.06,7.0,Calm,Calm,-,N/A,,Clear,0,2013-02-24 09:35:00
3:55 AM,28.2,24.8,87,30.06,7.0,Calm,Calm,-,N/A,,Clear,0,2013-02-24 09:55:00
4:15 AM,28.0,26.1,92,30.07,5.0,Calm,Calm,-,N/A,,Clear,0,2013-02-24 10:15:00
4:35 AM,27.1,25.7,94,30.08,5.0,Calm,Calm,-,N/A,,Clear,0,2013-02-24 10:35:00
4:55 AM,27.5,25.7,93,30.08,5.0,Calm,Calm,-,N/A,,Clear,0,2013-02-24 10:55:00
5:15 AM,28.0,26.4,94,30.08,4.0,Calm,Calm,-,N/A,,Clear,0,2013-02-24 11:15:00
5:35 AM,27.3,25.7,94,30.09,5.0,Calm,Calm,-,N/A,,Clear,0,2013-02-24 11:35:00
5:55 AM,26.4,24.8,94,30.10,5.0,Calm,Calm,-,N/A,,Clear,0,2013-02-24 11:55:00
6:15 AM,25.5,24.4,96,30.10,4.0,Calm,Calm,-,N/A,,Clear,0,2013-02-24 12:15:00
6:35 AM,25.5,24.8,97,30.10,4.0,Calm,Calm,-,N/A,,Clear,0,2013-02-24 12:35:00
6:55 AM,26.1,25.2,96,30.12,3.0,Calm,Calm,-,N/A,,Clear,0,2013-02-24 12:55:00
7:15 AM,26.6,25.5,96,30.13,3.0,Calm,Calm,-,N/A,,Clear,0,2013-02-24 13:15:00
7:35 AM,27.5,26.2,95,30.13,3.0,Calm,Calm,-,N/A,,Clear,0,2013-02-24 13:35:00
7:55 AM,28.9,26.6,91,30.15,4.0,Calm,Calm,-,N/A,,Clear,0,2013-02-24 13:55:00
8:15 AM,31.6,27.1,83,30.16,7.0,Calm,Calm,-,N/A,,Clear,0,2013-02-24 14:15:00
8:35 AM,32.0,27.5,83,30.17,5.0,Calm,Calm,-,N/A,,Haze,0,2013-02-24 14:35:00
8:55 AM,32.0,27.3,83,30.17,7.0,SSE,3.5,-,N/A,,Clear,160,2013-02-24 14:55:00
9:15 AM,33.3,27.0,78,30.16,7.0,SE,3.5,-,N/A,,Clear,130,2013-02-24 15:15:00
9:35 AM,35.1,27.0,72,30.16,10.0,Calm,Calm,-,N/A,,Clear,0,2013-02-24 15:35:00
9:55 AM,35.6,25.9,68,30.16,10.0,ENE,4.6,-,N/A,,Clear,70,2013-02-24 15:55:00
10:15 AM,37.6,27.7,67,30.16,10.0,ENE,4.6,-,N/A,,Clear,60,2013-02-24 16:15:00
10:35 AM,37.6,26.8,65,30.15,10.0,Calm,Calm,-,N/A,,Clear,0,2013-02-24 16:35:00
10:55 AM,38.7,27.9,65,30.15,10.0,ENE,3.5,-,N/A,,Clear,60,2013-02-24 16:55:00
11:15 AM,40.8,28.0,60,30.15,10.0,Calm,Calm,-,N/A,,Clear,0,2013-02-24 17:15:00
11:35 AM,41.0,26.6,57,30.15,10.0,Calm,Calm,-,N/A,,Clear,0,2013-02-24 17:35:00
11:55 AM,41.7,26.4,55,30.15,10.0,Calm,Calm,-,N/A,,Clear,0,2013-02-24 17:55:00
12:15 PM,41.7,27.1,56,30.14,10.0,SSW,3.5,-,N/A,,Clear,200,2013-02-24 18:15:00
12:35 PM,42.8,27.3,54,30.14,10.0,Calm,Calm,-,N/A,,Clear,0,2013-02-24 18:35:00
12:55 PM,43.3,26.1,51,30.13,10.0,Calm,Calm,-,N/A,,Clear,0,2013-02-24 18:55:00
1:15 PM,43.9,28.2,54,30.13,10.0,Calm,Calm,-,N/A,,Clear,0,2013-02-24 19:15:00
1:35 PM,44.8,28.8,53,30.13,10.0,Calm,Calm,-,N/A,,Clear,0,2013-02-24 19:35:00
1:55 PM,44.8,28.6,53,30.12,10.0,Calm,Calm,-,N/A,,Clear,0,2013-02-24 19:55:00
2:15 PM,45.5,27.9,50,30.12,10.0,NNE,4.6,-,N/A,,Clear,20,2013-02-24 20:15:00
2:35 PM,47.1,29.1,50,30.11,10.0,NE,4.6,-,N/A,,Clear,50,2013-02-24 20:35:00
2:55 PM,47.3,29.8,51,30.10,10.0,NE,4.6,-,N/A,,Clear,40,2013-02-24 20:55:00
3:15 PM,47.7,30.6,52,30.10,10.0,Calm,Calm,-,N/A,,Clear,0,2013-02-24 21:15:00
3:35 PM,47.5,29.8,50,30.10,10.0,East,4.6,-,N/A,,Clear,90,2013-02-24 21:35:00
3:55 PM,48.0,29.1,48,30.09,10.0,Calm,Calm,-,N/A,,Clear,0,2013-02-24 21:55:00
4:15 PM,47.5,30.4,52,30.09,10.0,ENE,4.6,-,N/A,,Clear,60,2013-02-24 22:15:00
4:35 PM,46.9,30.6,53,30.09,10.0,ENE,6.9,-,N/A,,Clear,70,2013-02-24 22:35:00
4:55 PM,46.6,31.6,56,30.10,10.0,NE,5.8,-,N/A,,Clear,50,2013-02-24 22:55:00
5:15 PM,45.5,33.4,63,30.10,10.0,ENE,6.9,-,N/A,,Clear,60,2013-02-24 23:15:00
5:35 PM,43.7,34.9,71,30.09,10.0,NE,6.9,-,N/A,,Clear,50,2013-02-24 23:35:00
5:55 PM,41.9,33.8,73,30.10,10.0,ENE,6.9,-,N/A,,Clear,60,2013-02-24 23:55:00
6:15 PM,40.6,33.4,75,30.10,10.0,NE,5.8,-,N/A,,Clear,50,2013-02-25 00:15:00
6:35 PM,40.1,33.4,77,30.10,10.0,NE,6.9,-,N/A,,Clear,50,2013-02-25 00:35:00
6:55 PM,39.2,32.2,76,30.11,10.0,ENE,4.6,-,N/A,,Clear,60,2013-02-25 00:55:00
7:15 PM,38.3,32.5,80,30.11,10.0,NE,3.5,-,N/A,,Clear,50,2013-02-25 01:15:00
7:35 PM,37.4,32.4,82,30.11,10.0,NE,3.5,-,N/A,,Clear,50,2013-02-25 01:35:00
7:55 PM,37.4,32.7,83,30.11,10.0,ENE,4.6,-,N/A,,Clear,60,2013-02-25 01:55:00
8:15 PM,36.5,32.9,87,30.10,10.0,ENE,5.8,-,N/A,,Clear,60,2013-02-25 02:15:00
8:35 PM,36.7,32.0,83,30.10,10.0,NE,5.8,-,N/A,,Clear,50,2013-02-25 02:35:00
8:55 PM,34.7,31.1,87,30.10,10.0,NE,3.5,-,N/A,,Clear,40,2013-02-25 02:55:00
9:15 PM,34.2,31.1,89,30.09,10.0,NNE,3.5,-,N/A,,Clear,30,2013-02-25 03:15:00
9:35 PM,33.8,30.2,87,30.09,10.0,NNE,4.6,-,N/A,,Clear,30,2013-02-25 03:35:00
9:55 PM,33.8,30.6,88,30.09,10.0,NE,3.5,-,N/A,,Clear,40,2013-02-25 03:55:00
10:15 PM,34.3,30.7,87,30.08,10.0,NE,5.8,-,N/A,,Clear,50,2013-02-25 04:15:00
10:35 PM,33.6,30.0,87,30.08,10.0,NE,3.5,-,N/A,,Clear,50,2013-02-25 04:35:00
10:55 PM,33.3,29.5,86,30.07,10.0,NNE,4.6,-,N/A,,Clear,30,2013-02-25 04:55:00
11:15 PM,33.8,30.6,88,30.07,10.0,NE,4.6,-,N/A,,Clear,40,2013-02-25 05:15:00
11:35 PM,34.2,30.4,86,30.07,10.0,NE,4.6,-,N/A,,Clear,40,2013-02-25 05:35:00
11:55 PM,33.6,30.2,87,30.06,10.0,NE,6.9,-,N/A,,Clear,50,2013-02-25 05:55:00